Simultaneous Nadir Overpasses (SNOs) Predictions

Prediction of SNOs between FY3D and AQUA Satellite Orbit:

Table of predicted SNOs for the next 14.0 days since TLE Epoch: 8/7/2020
Index Date (FY3D) Time (FY3D) Lat,Lon (FY3D) SZA (FY3D ) Date (AQUA) Time (AQUA) Lat,Lon (AQUA) SZA (AQUA ) Distance(km) Time Diff (sec)
1 08/08/2020 09:37:14 62.72,-104.25 95.85 08/08/2020 09:37:22 62.72,-104.26 95.85 0.30 8
2 08/08/2020 10:26:25 -67.95, 68.39 89.51 08/08/2020 10:25:18 -67.94, 68.34 89.42 2.05 67
3 08/11/2020 01:53:56 61.67, 10.81 97.63 08/11/2020 01:54:10 61.67, 10.83 97.61 1.07 14
4 08/11/2020 02:43:07 -66.92,-176.92 87.72 08/11/2020 02:42:06 -66.93,-176.91 87.66 0.58 61
5 08/13/2020 18:10:37 60.66, 125.96 99.38 08/13/2020 18:10:57 60.67, 125.99 99.34 1.98 20
6 08/13/2020 18:59:27 -67.09, -60.82 87.14 08/13/2020 18:58:33 -67.08, -60.86 87.07 2.13 54
7 08/16/2020 10:26:51 61.12,-117.79 99.68 08/16/2020 10:27:18 61.11,-117.82 99.66 1.78 27
8 08/16/2020 11:16:05 -66.23, 54.13 85.48 08/16/2020 11:15:17 -66.22, 54.12 85.42 0.43 48
9 08/19/2020 02:43:28 60.34, -2.46 101.24 08/19/2020 02:44:01 60.33, -2.48 101.21 1.68 33
10 08/19/2020 03:32:42 -65.47, 169.24 83.91 08/19/2020 03:32:00 -65.47, 169.26 83.87 0.81 42
11 08/21/2020 19:00:02 59.73, 113.02 102.64 08/21/2020 19:00:41 59.72, 112.99 102.60 1.99 39
